FENGYUN 1C DEB

Satellite information

Favourite Embed

Satellite Type and Status

DEBRISIN ORBIT

Key statistics

Satellite FENGYUN 1C DEB at a glance.

Uptime

9615

Days in orbit

Revolutions

≈ 14.2

Per day

Orbit

SSO

Sun Synchronous Orbit

Inclination

98.6

Latest

Satellite identification and parameters

Extended collection of information and parameters for FENGYUN 1C DEB.

Object identification

Identified? True

Debris? True

Object name: FENGYUN 1C DEB

International designator: 1999-025ACC

Object number (NORAD): 30365

Object ID (CCSDS): 30365

Country: PEOPLES REPUBLIC OF CHINA (PRC)

Current information (Y/N): Y

RCS size: SMALL

Orbital parameters

Period: 101.476 minutes

Inclination: 98.6146 deg

SMA: 7206.696 km

Apoapsis: 949.953 km

Periapsis: 707.169 km

RAAN: 243.3104 deg

Eccentricy: 0.01684433

Argument of periapsis: 41.9854 deg

Mean anomaly: 331.5692 deg

Mean motion: 14.19052484 rev/day

Mean motion (dot): 0.00001533 rev/day2

B* drag term: 0.00065474348 1/REarth

Two-line elements (TLE)

Creation date: Sept. 3, 2025, 10:15 a.m.

Reference frame: TEME

Reference center: EARTH

Epoch: Sept. 3, 2025, 5:21 a.m. UTC

TLE line 0: 0 FENGYUN 1C DEB

TLE line 1: 1 30365U 99025ACC 25246.22361020 .00001533 00000-0 65474-3 0 9998

TLE line 2: 2 30365 98.6146 243.3104 0168443 41.9854 331.5692 14.19052484961875

Live tracking on map

Real-time ground track for satellite FENGYUN 1C DEB.

In-orbit conjunctions

A list of the most updated potential collisions computed for object FENGYUN 1C DEB.

Target Orbit TCA Probability of collision Miss distance Type
ERS 2 DEB SSO 2024-10-22 09:39:52 0.000113893 66.0 (m) DEBRIS
FENGYUN 1C DEB SSO 2024-09-21 13:46:01 0.0001956645 227.0 (m) DEBRIS
FENGYUN 1C DEB SSO 2024-06-01 07:37:53 0.0002323582 164.0 (m) DEBRIS

Associated space launch

Chinese polar orbiting meteorological satellite

FENGYUN 1C DEB was lifted into orbit during the mission ‘Long March 4B | Feng Yun 1C’, on board a Long March 4B space rocket.

The launch took place on May 10, 1999, 1:33 a.m. from Launch Complex 7.

For more information about the launch, click the button.

Launch to space Long March 4B | Feng Yun 1C
Long March 4B | Feng Yun 1C

Agency: N/A

Status: Launch Successful

Launch date: May 10, 1999, 1:33 a.m. UTC

Rocket: Long March 4B

Launch pad: Launch Complex 7

Location: Taiyuan Satellite Launch Center, People's Republic of China

...

Latest news about this satellite

There are no fresh news available about this satellite. Check back as we update our databases every day.


Newsletter sign-up

Weekly statistics, charts and insights to help you stay on top of the space industry.